Location: Central Falls
(41.8900°N, 71.3929°W)
Time: 22:01:51
(UTC+00:00)

Vanguard 1 Rocket - Visible Passes

Search period start: 06 December 2023 00:00
Search period end: 16 December 2023 00:00
Orbit: 655 x 4218 km, 34.3° (Epoch: 05 December)

Date Brightness Start Highest point End Pass type
(mag) Time Alt. Az. Time Alt. Az. Time Alt. Az.
06 Dec 11.5 05:50:09 17° SSE 05:55:24 19° SE 06:07:55 10° E visible
06 Dec 10.7 08:07:36 18° SSW 08:24:47 43° SSE 08:39:04 10° E visible
06 Dec 10.0 10:33:14 10° WSW 10:53:52 61° S 11:04:41 10° E visible
07 Dec 11.0 07:01:41 27° S 07:10:43 34° SE 07:26:13 10° E visible
07 Dec 10.3 09:19:04 12° SW 09:40:22 56° SSE 09:53:19 10° E visible
08 Dec 11.3 05:55:22 25° SE 05:56:41 25° SE 06:11:49 10° E visible
08 Dec 10.6 08:12:44 28° SSW 08:26:22 49° SSE 08:41:26 10° E visible
08 Dec 9.9 10:34:25 10° WSW 10:55:45 64° S 11:06:55 10° E visible
09 Dec 11.7 04:48:46 14° ESE 04:48:46 14° ESE 04:54:02 10° ESE visible
09 Dec 10.9 07:06:06 36° S 07:12:05 40° SSE 07:28:46 10° E visible
09 Dec 10.2 09:23:27 19° WSW 09:42:06 61° SSE 09:55:33 10° E visible
10 Dec 11.2 05:59:16 31° SE 05:59:16 31° SE 06:14:55 10° E visible
10 Dec 10.5 08:16:35 36° SSW 08:27:55 55° SSE 08:43:40 10° E visible
10 Dec 10.0 10:35:42 10° WSW 10:57:34 66° S 11:09:06 10° ESE visible
11 Dec 11.6 04:52:15 17° ESE 04:52:15 17° ESE 04:58:51 10° E visible
11 Dec 10.7 07:09:33 44° S 07:13:25 47° SSE 07:31:06 10° E visible
11 Dec 10.2 09:26:51 24° WSW 09:43:49 65° S 09:57:43 10° E visible
12 Dec 11.0 06:02:23 36° SE 06:02:23 36° SE 06:17:33 10° E visible
12 Dec 10.4 08:19:40 42° SW 08:29:26 60° SSE 08:45:49 10° E visible
12 Dec 10.0 10:37:03 10° W 10:59:22 66° S 11:11:14 10° ESE visible
13 Dec 11.5 04:55:06 20° ESE 04:55:06 20° ESE 05:02:21 10° E visible
13 Dec 10.6 07:12:22 52° S 07:14:43 53° SSE 07:33:17 10° E visible
13 Dec 10.2 09:29:38 27° WSW 09:45:30 67° S 09:59:51 10° E visible
14 Dec 10.9 06:04:58 40° SE 06:04:58 40° SE 06:19:53 10° E visible
14 Dec 10.3 08:22:13 47° SW 08:30:58 65° SSE 08:47:55 10° E visible
14 Dec 10.0 10:39:29 12° W 11:01:04 64° SSW 11:13:19 10° ESE visible
15 Dec 11.4 04:57:29 23° E 04:57:29 23° E 05:05:09 10° E visible
15 Dec 10.5 07:14:44 58° SSE 07:16:01 58° SSE 07:35:22 10° E visible
15 Dec 10.2 09:31:59 30° WSW 09:47:10 69° S 10:01:56 10° ESE visible
